sat.trackr.live / text

‹ back to catalog

KINEIS-3E

NORAD 61222 · 2024-172C

PAYLOAD ACTIVE UNKNOWN

§ Identity

Operator
Country
FR
Launch date
2024-09-20
Launch site
RLLB
Launch vehicle
Mass (kg)
RCS (m²)

External: N2YO · Heavens-Above · Gunter

§ Orbital elements

Epoch: 2026-09-22T17:00:16.382880Z

Period
97.80 min
Inclination
98.0402°
Eccentricity
0.0001447
Mean motion
14.72391923 rev/d
Perigee alt
652.4 km
Apogee alt
654.5 km
Semi-major
7,031.6 km
B*
1.7775e-4
RAAN
354.5476°
Arg perigee
119.7890°
Mean anomaly
240.3461°
Rev number
10,770

§ Raw data

KINEIS-3E1 61222U 24172C   26265.70852295  .00001076  00000+0  17775-3 0  99912 61222  98.0402 354.5476 0001447 119.7890 240.3461 14.72391923107709

JSON: /api/v1/satellites/61222 · /tle

For live sub-satellite position, see the globe view (requires WebGL).

§ Visibility from observer

Set your observer location to see the next 7 days of passes ≥ 10°. The values pass through the URL so the page stays shareable.

No JS? Fill the form by hand. The geolocation button needs JavaScript.

§ Radio — SatNOGS DB

ModeDescriptionDownlinkUplink
BPSK S-band telemetry 2.265 GHz
FM Telemetry 400.662 MHz

2 transmitters · refreshed weekly from db.satnogs.org